Time,TemperatureF,DewpointF,PressureIn,WindDirection,WindDirectionDegrees,WindSpeedMPH,WindSpeedGustMPH,Humidity,HourlyPrecipIn,Conditions,Clouds,dailyrainin,SoftwareType,DateUTC
2013-02-03 00:11:00,12.9,7.3,30.06,North,0,0.0,-999.0,78,0.00,,,0.02,open2300 v1.10,2013-02-03 05:11:00,
2013-02-03 00:21:00,12.7,7.1,30.05,North,0,0.0,-999.0,78,0.00,,,0.02,open2300 v1.10,2013-02-03 05:21:00,
2013-02-03 00:31:00,12.7,7.1,30.05,North,0,0.0,-999.0,78,0.00,,,0.02,open2300 v1.10,2013-02-03 05:31:00,
2013-02-03 00:41:00,12.4,6.8,30.04,North,0,0.0,-999.0,78,0.00,,,0.02,open2300 v1.10,2013-02-03 05:41:00,
2013-02-03 00:51:00,12.0,6.4,30.03,North,0,0.0,-999.0,78,0.00,,,0.02,open2300 v1.10,2013-02-03 05:51:00,
2013-02-03 01:01:00,11.7,6.3,30.04,North,0,0.0,-999.0,79,0.00,,,0.02,open2300 v1.10,2013-02-03 06:01:00,
2013-02-03 01:11:00,11.5,5.9,30.03,North,0,0.0,-999.0,78,0.00,,,0.02,open2300 v1.10,2013-02-03 06:11:00,
2013-02-03 01:21:00,11.1,5.8,30.03,North,0,0.0,-999.0,79,0.00,,,0.02,open2300 v1.10,2013-02-03 06:21:00,
2013-02-03 01:31:00,11.1,5.8,30.03,North,0,0.0,-999.0,79,0.00,,,0.02,open2300 v1.10,2013-02-03 06:31:00,
2013-02-03 01:41:00,10.9,5.6,30.03,North,0,0.0,-999.0,79,0.00,,,0.02,open2300 v1.10,2013-02-03 06:41:00,
2013-02-03 01:51:00,10.6,5.2,30.02,North,0,0.0,-999.0,79,0.00,,,0.02,open2300 v1.10,2013-02-03 06:51:00,
2013-02-03 02:01:00,10.8,5.4,30.02,North,0,0.0,-999.0,79,0.00,,,0.02,open2300 v1.10,2013-02-03 07:01:00,
2013-02-03 02:11:00,10.8,5.4,30.02,North,0,0.0,-999.0,79,0.00,,,0.02,open2300 v1.10,2013-02-03 07:11:00,
2013-02-03 02:21:00,10.9,5.6,30.02,North,0,0.0,-999.0,79,0.00,,,0.02,open2300 v1.10,2013-02-03 07:21:00,
2013-02-03 02:31:00,10.9,5.6,30.02,North,0,0.0,-999.0,79,0.00,,,0.02,open2300 v1.10,2013-02-03 07:31:00,
2013-02-03 02:41:00,10.9,5.6,30.02,North,0,0.0,-999.0,79,0.00,,,0.02,open2300 v1.10,2013-02-03 07:41:00,
2013-02-03 02:51:00,10.9,5.6,30.01,North,0,0.0,-999.0,79,0.00,,,0.02,open2300 v1.10,2013-02-03 07:51:00,
2013-02-03 03:01:00,10.8,5.4,30.01,North,0,0.0,-999.0,79,0.00,,,0.02,open2300 v1.10,2013-02-03 08:01:00,
2013-02-03 03:11:00,10.6,5.2,30.00,North,0,0.0,-999.0,79,0.00,,,0.02,open2300 v1.10,2013-02-03 08:11:00,
2013-02-03 03:21:00,10.2,4.9,30.01,North,0,0.0,-999.0,79,0.00,,,0.02,open2300 v1.10,2013-02-03 08:21:00,
2013-02-03 03:31:00,10.2,4.9,29.99,North,0,0.0,-999.0,79,0.00,,,0.02,open2300 v1.10,2013-02-03 08:31:00,
2013-02-03 03:41:00,10.6,5.2,30.00,North,0,0.0,-999.0,79,0.00,,,0.02,open2300 v1.10,2013-02-03 08:41:00,
2013-02-03 03:51:00,10.9,5.6,30.00,North,0,0.0,-999.0,79,0.00,,,0.02,open2300 v1.10,2013-02-03 08:51:00,
2013-02-03 04:01:00,11.1,5.8,29.99,North,0,0.0,-999.0,79,0.00,,,0.02,open2300 v1.10,2013-02-03 09:01:00,
2013-02-03 04:11:00,11.5,6.4,29.99,North,0,0.0,-999.0,80,0.00,,,0.02,open2300 v1.10,2013-02-03 09:11:00,
2013-02-03 04:21:00,11.7,6.6,29.98,North,0,0.0,-999.0,80,0.00,,,0.02,open2300 v1.10,2013-02-03 09:21:00,
2013-02-03 04:31:00,12.0,7.0,29.97,North,0,0.0,-999.0,80,0.00,,,0.02,open2300 v1.10,2013-02-03 09:31:00,
2013-02-03 04:41:00,12.0,7.0,29.97,North,0,0.0,-999.0,80,0.00,,,0.02,open2300 v1.10,2013-02-03 09:41:00,
2013-02-03 04:51:00,12.4,7.3,29.96,North,0,0.0,-999.0,80,0.00,,,0.02,open2300 v1.10,2013-02-03 09:51:00,
2013-02-03 05:01:00,12.4,7.3,29.97,North,0,0.0,-999.0,80,0.00,,,0.02,open2300 v1.10,2013-02-03 10:01:00,
2013-02-03 05:11:00,12.4,7.3,29.97,North,0,0.0,-999.0,80,0.00,,,0.02,open2300 v1.10,2013-02-03 10:11:00,
2013-02-03 05:21:00,12.6,7.5,29.97,North,0,0.0,-999.0,80,0.00,,,0.02,open2300 v1.10,2013-02-03 10:21:00,
2013-02-03 05:31:00,12.7,7.7,29.97,North,0,0.0,-999.0,80,0.00,,,0.02,open2300 v1.10,2013-02-03 10:31:00,
2013-02-03 05:41:00,12.7,7.7,29.97,North,0,0.0,-999.0,80,0.00,,,0.02,open2300 v1.10,2013-02-03 10:41:00,
2013-02-03 05:51:00,12.7,7.7,29.97,North,0,0.0,-999.0,80,0.00,,,0.02,open2300 v1.10,2013-02-03 10:51:00,
2013-02-03 06:01:00,12.7,7.7,29.97,North,0,0.0,-999.0,80,0.00,,,0.02,open2300 v1.10,2013-02-03 11:01:00,
2013-02-03 06:11:00,12.9,8.1,29.97,North,0,0.0,-999.0,81,0.00,,,0.02,open2300 v1.10,2013-02-03 11:11:00,
2013-02-03 06:21:00,12.9,8.1,29.97,North,0,0.0,-999.0,81,0.00,,,0.02,open2300 v1.10,2013-02-03 11:21:00,
2013-02-03 06:31:00,13.1,8.3,29.97,North,0,0.0,-999.0,81,0.00,,,0.02,open2300 v1.10,2013-02-03 11:31:00,
2013-02-03 06:41:00,13.3,8.5,29.97,North,0,0.0,-999.0,81,0.00,,,0.02,open2300 v1.10,2013-02-03 11:41:00,
2013-02-03 06:51:00,13.3,8.5,29.98,North,0,0.0,-999.0,81,0.00,,,0.02,open2300 v1.10,2013-02-03 11:51:00,
2013-02-03 07:01:00,13.6,9.1,29.98,North,0,0.0,-999.0,82,0.00,,,0.02,open2300 v1.10,2013-02-03 12:01:00,
2013-02-03 07:11:00,13.6,9.1,29.97,North,0,0.0,-999.0,82,0.00,,,0.02,open2300 v1.10,2013-02-03 12:11:00,
2013-02-03 07:21:00,13.8,9.3,29.98,North,0,0.0,-999.0,82,0.00,,,0.02,open2300 v1.10,2013-02-03 12:21:00,
2013-02-03 07:31:00,13.8,9.3,29.98,North,0,0.0,-999.0,82,0.00,,,0.02,open2300 v1.10,2013-02-03 12:31:00,
2013-02-03 07:41:00,14.2,9.7,29.99,North,0,0.0,-999.0,82,0.00,,,0.02,open2300 v1.10,2013-02-03 12:41:00,
2013-02-03 07:51:00,14.2,9.7,29.99,North,0,0.0,-999.0,82,0.00,,,0.02,open2300 v1.10,2013-02-03 12:51:00,
2013-02-03 08:01:00,14.4,9.8,29.98,North,0,0.0,-999.0,82,0.00,,,0.02,open2300 v1.10,2013-02-03 13:01:00,
2013-02-03 08:11:00,14.5,10.0,29.99,North,0,0.0,-999.0,82,0.00,,,0.02,open2300 v1.10,2013-02-03 13:11:00,
2013-02-03 08:21:00,14.7,10.2,29.99,North,0,0.0,-999.0,82,0.00,,,0.02,open2300 v1.10,2013-02-03 13:21:00,
2013-02-03 08:31:00,14.7,10.4,29.99,North,0,0.0,-999.0,83,0.00,,,0.02,open2300 v1.10,2013-02-03 13:31:00,
2013-02-03 08:41:00,15.1,10.8,29.99,North,0,0.0,-999.0,83,0.00,,,0.02,open2300 v1.10,2013-02-03 13:41:00,
2013-02-03 08:51:00,15.3,11.0,29.99,North,0,0.0,-999.0,83,0.00,,,0.02,open2300 v1.10,2013-02-03 13:51:00,
2013-02-03 09:01:00,15.4,11.2,30.00,North,0,0.0,-999.0,83,0.00,,,0.02,open2300 v1.10,2013-02-03 14:01:00,
2013-02-03 09:11:00,15.6,11.3,29.99,North,0,0.0,-999.0,83,0.00,,,0.02,open2300 v1.10,2013-02-03 14:11:00,
2013-02-03 09:21:00,16.0,11.7,29.99,North,0,0.0,-999.0,83,0.00,,,0.02,open2300 v1.10,2013-02-03 14:21:00,
2013-02-03 09:31:00,16.2,12.1,29.99,North,0,0.0,-999.0,84,0.00,,,0.02,open2300 v1.10,2013-02-03 14:31:00,
2013-02-03 09:41:00,16.3,12.3,29.99,North,0,0.0,-999.0,84,0.00,,,0.02,open2300 v1.10,2013-02-03 14:41:00,
2013-02-03 09:51:00,16.7,12.6,29.99,WNW,292,0.0,-999.0,84,0.00,,,0.02,open2300 v1.10,2013-02-03 14:51:00,
2013-02-03 10:01:00,16.9,12.8,29.99,WNW,292,0.0,-999.0,84,0.00,,,0.02,open2300 v1.10,2013-02-03 15:01:00,
2013-02-03 10:11:00,17.2,13.1,29.99,WNW,292,0.0,-999.0,84,0.00,,,0.02,open2300 v1.10,2013-02-03 15:11:00,
2013-02-03 10:21:00,17.4,13.3,29.99,WNW,292,0.0,-999.0,84,0.00,,,0.02,open2300 v1.10,2013-02-03 15:21:00,
2013-02-03 10:31:00,17.8,13.6,29.99,North,0,0.0,-999.0,84,0.00,,,0.02,open2300 v1.10,2013-02-03 15:31:00,
2013-02-03 10:41:00,18.0,13.8,29.99,WNW,292,0.0,-999.0,84,0.00,,,0.02,open2300 v1.10,2013-02-03 15:41:00,
2013-02-03 10:51:00,18.3,14.2,30.00,WNW,292,0.0,-999.0,84,0.00,,,0.02,open2300 v1.10,2013-02-03 15:51:00,
2013-02-03 11:01:00,18.9,14.7,30.00,WNW,292,0.0,-999.0,84,0.00,,,0.02,open2300 v1.10,2013-02-03 16:01:00,
2013-02-03 11:11:00,19.2,15.1,30.00,North,0,0.0,-999.0,84,0.00,,,0.02,open2300 v1.10,2013-02-03 16:11:00,
2013-02-03 11:21:00,19.8,15.6,30.00,WNW,292,0.0,-999.0,84,0.00,,,0.02,open2300 v1.10,2013-02-03 16:21:00,
2013-02-03 11:31:00,20.3,16.2,30.00,North,0,0.0,-999.0,84,0.00,,,0.02,open2300 v1.10,2013-02-03 16:31:00,
2013-02-03 11:41:00,20.5,16.3,30.00,North,0,0.0,-999.0,84,0.00,,,0.02,open2300 v1.10,2013-02-03 16:41:00,
2013-02-03 11:51:00,20.8,16.7,30.00,NNE,22,0.0,-999.0,84,0.00,,,0.02,open2300 v1.10,2013-02-03 16:51:00,
2013-02-03 12:01:00,21.4,17.2,30.00,East,90,0.0,-999.0,84,0.00,,,0.00,open2300 v1.10,2013-02-03 17:01:00,
2013-02-03 12:11:00,21.9,17.8,30.00,NNE,22,0.0,-999.0,84,0.00,,,0.00,open2300 v1.10,2013-02-03 17:11:00,
2013-02-03 12:21:00,22.5,18.3,30.00,NNE,22,0.0,-999.0,84,0.00,,,0.00,open2300 v1.10,2013-02-03 17:21:00,
2013-02-03 12:31:00,22.6,18.2,30.00,North,0,0.0,-999.0,83,0.00,,,0.00,open2300 v1.10,2013-02-03 17:31:00,
2013-02-03 12:41:00,22.5,18.0,30.00,NNE,22,2.9,-999.0,83,0.00,,,0.00,open2300 v1.10,2013-02-03 17:41:00,
2013-02-03 12:51:00,22.6,18.0,30.01,North,0,0.0,-999.0,82,0.00,,,0.00,open2300 v1.10,2013-02-03 17:51:00,
2013-02-03 13:01:00,22.6,18.0,30.01,North,0,0.0,-999.0,82,0.00,,,0.00,open2300 v1.10,2013-02-03 18:01:00,
2013-02-03 13:11:00,22.8,17.9,30.01,North,0,2.0,-999.0,81,0.00,,,0.00,open2300 v1.10,2013-02-03 18:11:00,
2013-02-03 13:21:00,22.8,17.9,30.01,North,0,2.5,-999.0,81,0.00,,,0.00,open2300 v1.10,2013-02-03 18:21:00,
2013-02-03 13:31:00,23.0,18.0,30.02,North,0,2.7,-999.0,81,0.00,,,0.00,open2300 v1.10,2013-02-03 18:31:00,
2013-02-03 13:41:00,23.4,18.1,30.01,North,0,3.1,-999.0,80,0.00,,,0.00,open2300 v1.10,2013-02-03 18:41:00,
2013-02-03 13:51:00,23.4,17.8,30.01,North,0,6.5,-999.0,79,0.00,,,0.00,open2300 v1.10,2013-02-03 18:51:00,
2013-02-03 14:01:00,23.5,18.0,30.01,North,0,9.8,-999.0,79,0.00,,,0.00,open2300 v1.10,2013-02-03 19:01:00,
2013-02-03 14:11:00,24.1,18.9,30.01,North,0,6.7,-999.0,80,0.00,,,0.00,open2300 v1.10,2013-02-03 19:11:00,
2013-02-03 14:21:00,24.4,18.9,30.02,North,0,6.0,-999.0,79,0.00,,,0.00,open2300 v1.10,2013-02-03 19:21:00,
2013-02-03 14:31:00,23.7,17.9,30.02,North,0,7.6,-999.0,78,0.00,,,0.00,open2300 v1.10,2013-02-03 19:31:00,
2013-02-03 14:41:00,23.5,17.4,30.02,North,0,7.6,-999.0,77,0.00,,,0.00,open2300 v1.10,2013-02-03 19:41:00,
2013-02-03 14:51:00,23.4,17.2,30.03,North,0,6.5,-999.0,77,0.00,,,0.00,open2300 v1.10,2013-02-03 19:51:00,
2013-02-03 15:01:00,23.4,17.5,30.04,North,0,1.1,-999.0,78,0.00,,,0.00,open2300 v1.10,2013-02-03 20:01:00,
2013-02-03 15:11:00,23.5,17.7,30.04,WNW,292,0.0,-999.0,78,0.00,,,0.00,open2300 v1.10,2013-02-03 20:11:00,
2013-02-03 15:21:00,23.5,17.4,30.05,North,0,0.2,-999.0,77,0.00,,,0.00,open2300 v1.10,2013-02-03 20:21:00,
2013-02-03 15:31:00,23.7,17.2,30.05,North,0,4.2,-999.0,76,0.00,,,0.00,open2300 v1.10,2013-02-03 20:31:00,
2013-02-03 15:41:00,23.9,17.4,30.05,North,0,0.0,-999.0,76,0.00,,,0.00,open2300 v1.10,2013-02-03 20:41:00,
2013-02-03 15:51:00,24.4,17.9,30.06,North,0,1.6,-999.0,76,0.00,,,0.00,open2300 v1.10,2013-02-03 20:51:00,
2013-02-03 16:01:00,25.0,18.5,30.06,North,0,6.0,-999.0,76,0.00,,,0.00,open2300 v1.10,2013-02-03 21:01:00,
2013-02-03 16:11:00,24.4,17.6,30.06,North,0,2.0,-999.0,75,0.00,,,0.00,open2300 v1.10,2013-02-03 21:11:00,
2013-02-03 16:21:00,24.4,17.6,30.06,North,0,0.0,-999.0,75,0.00,,,0.00,open2300 v1.10,2013-02-03 21:21:00,
2013-02-03 16:31:00,24.6,17.8,30.06,North,0,0.0,-999.0,75,0.00,,,0.00,open2300 v1.10,2013-02-03 21:31:00,
2013-02-03 16:41:00,24.6,17.8,30.07,WNW,292,0.0,-999.0,75,0.00,,,0.00,open2300 v1.10,2013-02-03 21:41:00,
2013-02-03 16:51:00,24.6,17.5,30.06,North,0,2.5,-999.0,74,0.00,,,0.00,open2300 v1.10,2013-02-03 21:51:00,
2013-02-03 17:01:00,24.4,17.3,30.07,North,0,0.0,-999.0,74,0.00,,,0.00,open2300 v1.10,2013-02-03 22:01:00,
2013-02-03 17:11:00,23.9,16.5,30.07,North,0,0.0,-999.0,73,0.00,,,0.00,open2300 v1.10,2013-02-03 22:11:00,
2013-02-03 17:21:00,23.7,16.6,30.06,North,0,0.0,-999.0,74,0.00,,,0.00,open2300 v1.10,2013-02-03 22:21:00,
2013-02-03 17:31:00,23.5,16.5,30.07,North,0,0.0,-999.0,74,0.00,,,0.00,open2300 v1.10,2013-02-03 22:31:00,
2013-02-03 17:41:00,23.2,15.8,30.06,North,0,0.0,-999.0,73,0.00,,,0.00,open2300 v1.10,2013-02-03 22:41:00,
2013-02-03 17:51:00,23.2,15.8,30.06,North,0,0.0,-999.0,73,0.00,,,0.00,open2300 v1.10,2013-02-03 22:51:00,
2013-02-03 18:01:00,22.8,15.8,30.06,North,0,0.0,-999.0,74,0.00,,,0.00,open2300 v1.10,2013-02-03 23:01:00,
2013-02-03 18:11:00,22.6,15.6,30.06,North,0,0.0,-999.0,74,0.00,,,0.00,open2300 v1.10,2013-02-03 23:11:00,
2013-02-03 18:21:00,22.3,15.2,30.06,WNW,292,0.0,-999.0,74,0.00,,,0.00,open2300 v1.10,2013-02-03 23:21:00,
2013-02-03 18:31:00,22.1,15.0,30.06,WNW,292,0.0,-999.0,74,0.00,,,0.00,open2300 v1.10,2013-02-03 23:31:00,
2013-02-03 18:41:00,21.7,14.7,30.06,WNW,292,0.0,-999.0,74,0.00,,,0.00,open2300 v1.10,2013-02-03 23:41:00,
2013-02-03 18:51:00,21.7,14.7,30.07,North,0,0.0,-999.0,74,0.00,,,0.00,open2300 v1.10,2013-02-03 23:51:00,
2013-02-03 19:01:00,21.4,14.3,30.07,North,0,0.0,-999.0,74,0.00,,,0.00,open2300 v1.10,2013-02-04 00:01:00,
2013-02-03 19:11:00,21.0,14.0,30.07,WNW,292,0.0,-999.0,74,0.00,,,0.00,open2300 v1.10,2013-02-04 00:11:00,
2013-02-03 19:21:00,20.8,13.8,30.06,WNW,292,0.0,-999.0,74,0.00,,,0.00,open2300 v1.10,2013-02-04 00:21:00,
2013-02-03 19:31:00,20.5,13.7,30.06,North,0,1.6,-999.0,75,0.00,,,0.00,open2300 v1.10,2013-02-04 00:31:00,
2013-02-03 19:41:00,20.5,13.7,30.06,NNE,22,0.0,-999.0,75,0.00,,,0.00,open2300 v1.10,2013-02-04 00:41:00,
2013-02-03 19:51:00,20.8,14.1,30.06,North,0,0.0,-999.0,75,0.00,,,0.00,open2300 v1.10,2013-02-04 00:51:00,
2013-02-03 20:01:00,21.0,14.6,30.06,North,0,0.0,-999.0,76,0.00,,,0.00,open2300 v1.10,2013-02-04 01:01:00,
2013-02-03 20:11:00,21.0,14.6,30.06,North,0,0.0,-999.0,76,0.00,,,0.00,open2300 v1.10,2013-02-04 01:11:00,
2013-02-03 20:21:00,21.4,14.9,30.06,North,0,0.0,-999.0,76,0.00,,,0.00,open2300 v1.10,2013-02-04 01:21:00,
2013-02-03 20:31:00,21.7,15.3,30.06,North,0,0.0,-999.0,76,0.00,,,0.00,open2300 v1.10,2013-02-04 01:31:00,
2013-02-03 20:41:00,21.9,15.5,30.06,North,0,0.0,-999.0,76,0.00,,,0.00,open2300 v1.10,2013-02-04 01:41:00,
2013-02-03 20:51:00,22.1,15.4,30.06,North,0,0.0,-999.0,75,0.00,,,0.00,open2300 v1.10,2013-02-04 01:51:00,
2013-02-03 21:01:00,22.3,15.5,30.06,North,0,0.0,-999.0,75,0.00,,,0.00,open2300 v1.10,2013-02-04 02:01:00,
2013-02-03 21:11:00,22.1,15.4,30.06,NNE,22,0.0,-999.0,75,0.00,,,0.00,open2300 v1.10,2013-02-04 02:11:00,
2013-02-03 21:21:00,22.1,15.4,30.06,NNE,22,0.0,-999.0,75,0.00,,,0.00,open2300 v1.10,2013-02-04 02:21:00,
2013-02-03 21:31:00,22.1,15.4,30.06,NNE,22,0.0,-999.0,75,0.00,,,0.00,open2300 v1.10,2013-02-04 02:31:00,
2013-02-03 21:41:00,21.9,15.2,30.07,NNE,22,0.0,-999.0,75,0.00,,,0.00,open2300 v1.10,2013-02-04 02:41:00,
2013-02-03 21:51:00,21.9,15.2,30.07,NNE,22,0.0,-999.0,75,0.00,,,0.00,open2300 v1.10,2013-02-04 02:51:00,
2013-02-03 22:01:00,21.9,15.2,30.07,NNE,22,0.0,-999.0,75,0.00,,,0.00,open2300 v1.10,2013-02-04 03:01:00,
2013-02-03 22:11:00,21.9,15.2,30.08,North,0,0.0,-999.0,75,0.00,,,0.00,open2300 v1.10,2013-02-04 03:11:00,
2013-02-03 22:21:00,21.9,15.2,30.08,North,0,0.0,-999.0,75,0.00,,,0.00,open2300 v1.10,2013-02-04 03:21:00,
2013-02-03 22:31:00,21.9,15.2,30.08,North,0,0.0,-999.0,75,0.00,,,0.00,open2300 v1.10,2013-02-04 03:31:00,
2013-02-03 22:41:00,22.3,15.5,30.08,NNE,22,0.0,-999.0,75,0.00,,,0.00,open2300 v1.10,2013-02-04 03:41:00,
2013-02-03 22:51:00,22.5,15.7,30.08,NNE,22,0.0,-999.0,75,0.00,,,0.00,open2300 v1.10,2013-02-04 03:51:00,
2013-02-03 23:01:00,22.6,15.9,30.08,NNE,22,0.0,-999.0,75,0.00,,,0.00,open2300 v1.10,2013-02-04 04:01:00,
2013-02-03 23:11:00,22.6,15.9,30.08,NNE,22,0.0,-999.0,75,0.00,,,0.00,open2300 v1.10,2013-02-04 04:11:00,
2013-02-03 23:21:00,22.8,16.1,30.08,NNE,22,0.0,-999.0,75,0.00,,,0.00,open2300 v1.10,2013-02-04 04:21:00,
2013-02-03 23:31:00,22.8,16.1,30.08,NNE,22,0.0,-999.0,75,0.00,,,0.00,open2300 v1.10,2013-02-04 04:31:00,
2013-02-03 23:41:00,22.8,16.1,30.07,NNE,22,0.0,-999.0,75,0.00,,,0.00,open2300 v1.10,2013-02-04 04:41:00,
2013-02-03 23:51:00,22.8,16.4,30.07,NNE,22,0.0,-999.0,76,0.00,,,0.00,open2300 v1.10,2013-02-04 04:51:00,